SCP
0 0 0 0 0 0 0 0 0 0 0 0 0 0 0 0 0 0 0 0 0 0 0 0 0 0 0 0 0 0 0 0 0 0 0 0 0 0 0 0 0 0 0 0 0 0 -0 0 -0 -0 -0 -0 -0 -0
0 0 0 0 0 0 0 0 0 0 0 0 0 0 0 0 0 0 0 0 0 0 0 0 0 0 0 0 0 0 0 0 0 0 0 0 0 0 0 0 0 0 0 0 0 0 0 -0 -0 -0 -0 -0 -0 -0
0 0 0 0 0 0 0 0 0 0 0 0 0 0 0 0 0 0 0 0 0 0 0 0 0 0 0 0 0 0 0 0 0 0 0 0 0 0 0 0 0 0 0 0 0 0 -0 -0 0 -0 -0 -0 -0 -0
0 0 0 0 0 0 0 0 0 0 0 0 0 0 0 0 0 0 0 0 0 0 0 0 0 0 0 0 0 0 0 0 0 0 0 0 0 0 0 0 0 0 0 0 0 -0 -0 -0 -0 -0 -0 -0 -0 -0
0 0 0 0 0 0 0 0 0 0 0 0 0 0 0 0 0 0 0 0 0 0 0 0 0 0 0 0 0 0 0 0 0 0 0 0 0 0 0 0 0 0 0 0 0 -0 -0 -0 0 -0 -0 -0 -0 -0
0 0 0 0 0 0 0 0 0 0 0 0 0 0 0 0 0 0 0 0 0 0 0 0 0 0 0 0 0 0 0 0 0 0 0 0 0 0 0 0 0 0 0 0 -0 -0 -0 -0 0 -0 -0 -0 -0 0
0 0 0 0 0 0 0 0 0 0 0 0 0 0 0 0 0 0 0 0 0 0 0 0 0 0 0 0 0 0 0 0 0 0 0 0 0 -0 0 0 0 -0 -0 -0 0 -0 -0 -0 -0 -0 -0 -0 -0 0
0 0 0 0 0 0 0 0 0 0 0 0 0 0 0 0 0 0 0 0 0 0 0 0 0 0 0 0 0 0 0 0 0 0 0 0 0 0 0 0 0 0 0 0 0 -0 -0 -0 0 -0 -0 -0 0 0
0 0 0 0 0 0 0 0 0 0 0 0 0 0 0 0 0 0 0 0 0 0 0 0 0 0 0 0 0 0 0 0 0 0 0 0 0 0 0 0 0 0 0 0 -0 -0 -0 -0 0 0 0 -0 0 0
0 0 0 0 0 0 0 0 0 0 0 0 0 0 0 0 0 0 0 0 0 0 0 0 0 0 0 0 0 0 0 0 -0 -0 0 -0 0 0 0 0 0 0 0 0 -0 -0 -0 -0 0 -0 0 -0 0 0
0 0 0 0 0 0 0 0 0 0 0 0 0 0 0 0 0 0 0 0 0 0 0 0 0 0 0 0 0 0 0 0 -0 -0 -0 -0 0 0 0 0 0 0 0 0 -0 -0 -0 0 0 -0 0 -0 -0 0
0 0 0 0 0 0 0 -0 0 0 0 0 0 0 0 0 0 0 0 0 0 -0 0 0 0 0 0 0 0 0 0 0 -0 0 -0 0 -0 -0 0 0 0 0 0 0 -0 -0 -0 -0 -0 0 -0 -0 -0 0
-0 -0 0 0 0 0 0 0 -0 -0 0 0 0 0 0 0 0 0 0 -0 -0 0 0 -0 -0 0 0 0 0 0 0 0 0 -0 0 0 -0 -0 0 0 0 0 0 0 -0 -0 -0 -0 -0 0 -0 -0 -0 0
0 0 -0 -0 0 0 0 0 -0 0 0 0 0 0 0 0 0 -0 -0 0 0 0 0 -0 0 0 0 0 0 0 0 0 -0 0 0 0 -0 -0 0 0 0 0 0 0 -0 -0 0 0 0 -0 0 -0 -0 -0
-0 -0 0 -0 0 0 -0 0 -0 0 0 0 0 -0 -0 0 0 0 0 -0 -0 0 0 0 0 0 0 0 0 0 0 0 -0 0 0 0 -0 -0 -0 0 0 0 0 0 -0 0 -0 0 0 0 0 0 -0 -0
-0 0 0 0 0 0 0 -0 0 0 0 0 0 0 0 0 -0 0 -0 -0 -0 0 0 0 0 0 0 0 0 0 -0 0 0 0 0 -0 -0 -0 -0 -0 0 0 0 0 0 -0 0 0 -0 0 0 -0 -0 -0
0 0 0 0 0 0 0 0 0 0 0 0 0 0 0 0 -0 -0 0 -0 0 -0 0 0 0 -0 -0 0 0 0 0 0 0 0 0 -0 -0 -0 -0 -0 0 0 0 0 0 0 -0 -0 0 0 -0 -0 0 -0
0 0 0 -0 0 0 0 0 0 0 0 0 0 -0 -0 -0 -0 -0 -0 0 0 0 0 0 0 -0 -0 0 0 0 0 0 0 0 0 0 -0 -0 -0 0 0 0 0 0 0 0 -0 0 -0 -0 -0 -0 -0 -0
0 0 0 -0 0 0 0 0 0 0 0 0 -0 0 0 0 -0 0 -0 -0 0 0 0 0 0 0 0 0 0 0 0 0 0 0 0 0 0 0 0 0 0 0 0 0 0 0 0 -0 0 0 0 0 -0 -0
0 0 0 -0 0 0 0 0 0 0 0 0 0 0 -0 -0 -0 0 -0 -0 0 0 0 0 0 0 0 0 0 0 0 0 0 0 0 0 -0 -0 0 0 0 0 0 0 0 0 0 0 0 0 0 0 0 -0
0 0 0 0 0 0 0 0 0 0 0 0 -0 -0 -0 -0 -0 -0 -0 0 0 0 0 0 0 0 0 0 0 0 0 0 0 0 0 -0 -0 -0 0 0 0 0 0 0 0 0 0 0 0 0 0 0 0 -0
0 0 0 0 0 0 0 0 0 0 -0 0 -0 -0 -0 -0 -0 -0 0 -0 0 0 0 0 0 0 0 0 -0 -0 0 0 0 0 0 -0 0 0 0 0 0 0 0 0 0 0 0 0 0 0 0 0 0 -0
0 0 0 0 0 0 0 0 0 -0 -0 -0 -0 -0 -0 -0 -0 0 -0 -0 0 0 0 0 0 0 0 0 0 0 0 0 0 0 0 0 0 0 0 0 0 0 0 0 0 0 0 0 0 0 0 0 0 -0
0 0 0 0 0 0 0 -0 -0 -0 0 0 -0 -0 -0 -0 0 -0 0 0 0 0 0 0 -0 0 0 0 0 0 0 0 0 0 0 0 0 0 0 0 0 0 0 0 0 0 0 0 0 0 0 0 0 0
0 0 0 0 0 0 0 0 -0 0 0 -0 -0 -0 -0 -0 0 0 0 0 0 0 0 0 0 0 0 0 0 0 0 0 0 0 0 0 0 0 0 0 0 0 0 0 0 0 0 0 0 0 0 0 0 0
0 0 -0 -0 0 0 0 0 -0 0 -0 -0 0 0 0 0 0 0 0 0 0 0 0 0 0 0 0 0 0 0 0 0 0 0 0 0 0 0 0 0 0 0 0 0 0 0 0 0 0 0 0 0 0 0
0 0 0 0 0 -0 -0 -0 -0 -0 -0 0 0 0 0 0 0 0 0 0 0 0 0 0 0 0 0 0 0 0 0 0 0 0 0 0 0 0 0 0 0 0 0 0 0 0 0 0 0 0 0 0 0 0
0 0 -0 -0 -0 -0 -0 -0 -0 0 0 0 0 0 0 0 0 0 0 0 0 0 0 0 0 0 0 0 0 0 0 0 0 0 0 0 0 0 0 0 0 0 0 0 0 0 0 0 0 0 0 0 0 0
0 -0 0 -0 0 0 0 0 0 0 0 0 0 0 0 0 0 0 0 0 0 0 0 0 0 0 0 0 0 0 0 0 0 0 0 0 0 0 0 0 0 0 0 0 0 0 0 0 0 0 0 0 0 0
0 0 0 0 0 0 0 0 0 0 0 0 0 0 0 0 0 0 0 0 0 0 0 0 0 0 0 0 0 0 0 0 0 0 0 0 0 0 0 0 0 0 0 0 0 0 0 0 0 0 0 0 0 0
0 0 0 0 0 0 0 0 0 0 0 0 0 0 0 0 0 0 0 0 0 0 0 0 0 0 0 0 0 0 0 0 0 0 0 0 0 0 0 0 0 0 0 0 0 0 0 0 0 0 0 0 0 0
0 0 0 0 0 0 0 0 0 0 0 0 0 0 0 0 0 0 0 0 0 0 0 0 0 0 0 0 0 0 0 0 0 0 0 0 0 0 0 0 0 0 0 0 0 0 0 0 0 0 0 0 0 0
0 0 0 0 0 0 0 0 0 0 0 0 0 0 0 0 0 0 0 0 0 0 0 0 0 0 0 0 0 0 0 0 0 0 0 0 0 0 0 0 0 0 0 0 0 0 0 0 0 0 0 0 0 0
Wind_Speed_500mb
41 44 44 42 41 40 35 28 27 28 24 22 21 20 21 21 21 17 16 16 17 11 27 18 16 22 19 15 6 6 15 3 5 4 5 4 2 4 4 4 6 11 9 7 8 9 11 11 9 9 20 39 47 56
37 35 33 34 35 36 34 31 29 28 24 22 20 20 21 22 21 24 22 20 22 27 30 51 52 49 52 43 18 10 5 7 5 5 3 4 3 5 2 3 3 6 6 3 9 4 1 7 19 14 29 46 52 56
40 38 36 35 35 37 35 34 36 32 28 25 22 18 18 25 26 24 24 21 22 21 33 14 7 4 10 12 43 11 7 10 8 8 5 3 4 3 3 4 6 5 4 4 4 2 4 18 8 29 37 47 56 56
42 41 40 38 35 33 32 30 29 33 31 26 21 17 18 25 25 22 21 23 21 13 8 12 8 32 35 29 27 35 39 6 7 13 5 3 5 3 2 3 5 4 5 3 9 10 18 5 23 43 50 52 56 56
44 43 41 39 37 35 31 28 26 28 30 23 25 19 17 21 21 22 18 22 24 12 8 22 54 6 6 18 35 35 40 31 9 4 5 5 4 4 2 3 9 8 4 6 4 4 9 28 37 42 53 58 57 59
41 40 37 35 33 35 35 31 27 25 31 23 24 19 20 22 23 16 7 17 28 26 9 8 14 13 11 11 30 37 22 24 11 10 7 7 6 4 4 5 4 8 8 6 3 9 20 34 35 40 49 54 54 56
34 36 34 33 31 32 32 26 27 25 31 28 20 24 24 27 26 14 7 5 13 13 5 10 9 10 13 5 19 25 25 13 13 7 7 6 3 7 4 6 3 10 6 6 7 14 18 21 38 44 46 50 50 52
31 32 33 31 30 26 23 20 28 32 31 31 22 23 26 25 18 25 25 20 12 9 7 5 7 10 5 9 8 15 13 16 15 8 5 6 2 6 6 9 8 9 3 3 4 13 23 33 35 39 44 50 54 57
32 33 31 28 25 21 15 20 30 33 32 25 19 31 29 20 11 13 13 10 16 14 6 7 4 4 9 5 11 14 10 6 9 5 6 8 5 8 7 13 15 8 1 7 13 18 22 27 34 40 47 50 53 64
33 31 29 27 23 21 20 21 22 15 23 22 39 20 10 11 14 13 14 12 10 9 10 7 9 8 3 5 5 5 8 5 6 7 11 7 5 3 11 17 14 5 5 10 15 19 25 29 36 44 45 44 46 55
30 28 25 25 23 20 15 16 17 13 39 41 14 11 14 20 17 7 7 7 10 7 11 10 20 14 6 5 3 6 3 4 4 5 5 4 4 6 12 13 9 7 12 11 11 15 18 25 35 42 44 43 44 50
30 28 26 26 24 25 21 18 20 31 26 26 12 24 20 10 7 6 6 7 9 7 10 8 12 20 9 11 6 6 3 4 3 12 4 3 4 15 14 7 6 10 11 10 12 13 17 23 31 33 35 39 44 47
37 33 29 28 26 32 19 21 23 41 27 25 8 9 9 8 8 10 11 7 7 8 10 11 5 8 12 14 9 5 6 3 13 4 3 4 14 14 11 4 5 9 10 10 12 13 19 27 28 31 34 36 40 47
31 28 28 30 24 29 22 17 38 39 14 8 10 9 8 8 10 10 7 3 6 8 11 9 9 10 11 9 4 4 3 5 3 5 3 6 21 18 9 5 7 11 15 13 15 19 24 29 32 30 33 34 37 44
23 27 30 28 26 36 24 12 40 48 11 7 9 8 12 14 5 2 5 12 18 17 18 11 8 11 4 4 5 4 5 5 4 1 5 20 25 17 11 14 17 15 14 16 18 19 27 31 35 33 33 34 36 40
23 26 26 27 25 24 24 31 49 39 11 8 10 6 9 7 10 14 24 27 21 18 7 8 4 3 4 3 5 6 4 5 3 4 18 29 24 21 23 23 19 17 16 17 17 21 27 31 36 36 35 38 39 43
12 20 14 21 32 28 26 49 37 15 12 7 8 19 11 6 12 7 8 12 10 8 5 5 8 3 3 3 3 4 5 1 13 20 29 27 29 31 26 20 16 13 14 16 18 23 28 29 35 41 46 47 47 48
23 16 16 19 27 27 43 32 15 12 10 16 8 11 17 17 15 14 8 8 7 6 7 3 2 6 3 4 4 4 6 10 19 33 32 34 36 30 23 18 13 12 12 15 18 22 28 32 39 44 44 46 47 53
24 19 18 23 25 32 14 14 9 8 16 7 14 19 12 12 17 20 17 13 11 5 3 3 5 5 2 8 5 7 19 24 34 31 36 38 31 25 17 13 11 10 11 14 17 21 27 31 34 38 42 45 47 54
22 18 22 17 42 12 10 8 14 6 8 8 11 9 8 8 10 17 14 18 12 11 6 6 5 6 7 9 7 5 28 40 43 35 33 34 26 18 13 10 8 6 8 12 14 14 17 24 31 35 38 45 49 53
27 26 23 43 23 5 7 10 10 8 6 8 6 9 6 9 12 15 12 14 12 7 7 11 14 14 17 5 4 19 35 38 33 34 39 32 25 18 17 15 10 8 4 8 11 13 17 23 27 30 34 38 41 43
38 36 34 35 6 9 3 11 7 5 6 5 5 8 5 5 8 10 12 16 8 11 11 16 22 14 9 6 19 27 34 31 27 29 34 31 27 26 20 14 11 9 8 8 10 11 14 18 22 25 28 31 34 38
41 34 11 10 4 6 6 10 7 8 6 4 7 4 5 4 4 17 6 10 10 22 23 20 24 10 8 10 19 25 34 32 28 33 30 23 22 23 20 15 12 9 9 10 11 10 12 16 20 23 26 29 32 35
28 11 7 12 7 7 8 7 7 4 5 3 4 3 4 6 13 5 2 3 5 20 21 20 30 28 16 14 17 21 33 33 27 29 26 25 25 25 19 14 11 9 9 11 11 11 12 15 20 24 27 29 32 34
10 7 9 6 7 8 7 7 7 5 6 7 6 4 4 8 4 3 2 2 5 16 13 13 25 27 26 19 16 15 23 30 25 23 25 27 24 23 19 14 9 5 8 11 10 11 13 17 21 25 28 31 32 33
6 8 12 15 8 7 7 4 10 9 5 6 6 4 5 3 3 4 3 10 7 8 3 19 31 26 17 13 15 18 21 22 23 21 21 23 22 9 8 11 8 3 6 9 12 15 17 20 23 27 29 32 35 35
8 8 9 11 6 7 7 6 6 4 8 6 4 4 4 3 4 5 4 19 11 7 12 20 21 14 12 20 20 21 20 19 19 14 9 21 17 13 9 5 4 1 4 7 12 15 18 23 27 30 31 32 34 35
4 14 10 19 11 7 2 4 7 7 4 5 9 3 3 6 4 7 5 13 19 16 21 23 22 11 11 18 19 20 21 18 16 12 21 22 15 4 3 3 5 5 3 10 15 19 24 29 32 33 34 34 35 36
7 14 12 9 5 4 5 1 2 3 2 6 4 4 5 7 12 9 7 12 16 16 16 22 24 13 22 23 23 21 24 25 28 25 13 5 4 10 8 6 4 0 8 14 19 24 28 31 33 34 35 34 34 35
9 22 6 7 2 3 5 3 1 5 9 15 17 21 20 20 22 16 17 18 13 14 18 20 24 30 36 32 39 37 29 21 14 5 4 8 11 10 9 7 3 8 15 19 23 28 31 32 33 32 31 30 31 32
20 12 7 7 6 10 22 26 22 20 14 19 29 30 20 16 30 27 27 27 25 26 29 32 32 31 31 28 22 18 13 7 8 7 6 7 7 7 7 6 10 15 17 21 25 27 29 29 27 26 25 26 27 29
11 7 10 6 6 13 12 10 11 11 11 12 11 10 10 10 10 12 19 25 30 36 39 39 35 27 24 19 17 17 16 18 16 12 8 5 4 6 10 13 15 15 16 19 23 22 23 23 22 22 22 24 26 28
12 18 19 11 8 7 7 9 7 6 9 7 8 10 10 8 9 6 14 14 19 22 23 25 29 29 28 25 21 19 12 6 5 3 2 2 2 4 5 6 8 11 13 16 18 18 18 18 19 20 22 24 26 28
Wind_Direction_500mb
282 277 277 279 284 285 281 281 283 292 292 294 286 282 274 282 275 273 271 253 241 247 281 255 247 233 247 242 249 326 317 155 264 229 242 196 213 27 290 175 180 187 193 194 207 240 262 19 339 323 331 311 312 312
283 284 281 281 283 281 280 280 280 276 285 292 283 278 268 273 269 261 262 255 256 254 272 289 280 264 253 248 276 226 259 313 285 291 294 297 198 190 251 256 205 215 218 199 221 286 116 352 294 303 319 310 315 314
278 279 279 281 280 281 282 283 277 266 270 284 279 271 250 262 263 261 262 261 275 282 302 285 271 281 344 274 227 244 228 232 228 357 300 296 272 184 233 239 287 148 157 224 270 149 275 308 183 326 326 320 318 316
274 276 278 280 277 277 283 291 292 258 259 273 272 255 249 261 251 258 254 259 265 287 284 280 273 298 286 259 228 224 225 217 315 348 291 296 271 212 276 320 277 8 187 207 261 286 325 265 304 325 323 323 322 319
275 276 277 276 273 271 276 290 298 262 250 256 270 246 240 250 247 246 254 257 260 258 281 284 305 357 344 260 220 211 217 236 293 296 245 241 255 237 205 250 250 200 215 232 280 2 283 297 313 321 323 323 323 324
277 276 276 272 272 272 273 286 289 273 244 244 252 250 235 233 235 235 255 248 243 250 292 295 303 302 346 293 211 214 216 233 212 212 237 241 235 243 260 259 123 171 176 202 318 292 286 297 309 321 323 324 324 325
282 276 273 275 271 274 276 280 293 282 244 238 238 248 230 230 227 202 216 209 169 201 243 285 282 281 314 162 192 211 218 204 199 223 236 283 228 220 234 246 254 190 203 272 302 315 302 316 317 325 326 326 327 327
289 286 279 274 271 266 267 284 286 284 246 225 232 241 221 216 212 230 244 252 275 236 215 268 276 293 274 197 190 188 183 191 214 203 201 237 194 228 257 225 182 188 267 315 320 296 294 310 319 325 330 334 334 337
288 285 283 276 262 253 279 294 289 276 217 213 213 194 182 193 204 241 261 247 250 209 233 219 255 284 324 293 196 184 194 180 203 215 200 194 185 224 252 175 163 168 251 316 321 308 313 321 324 330 334 339 338 338
285 279 278 268 255 245 283 286 292 220 183 228 187 163 184 183 189 149 152 181 198 226 237 246 232 259 303 338 267 211 168 198 200 199 165 215 235 105 75 121 135 117 3 342 328 322 331 332 332 333 335 337 336 339
277 271 272 267 253 237 263 271 216 245 186 171 161 143 152 147 154 172 198 209 190 236 220 239 228 235 245 238 286 282 219 203 210 144 221 199 211 123 131 121 100 24 348 348 332 316 324 326 327 331 334 340 342 345
265 269 264 269 251 225 238 241 239 205 186 179 168 128 140 166 182 212 199 199 208 244 195 221 218 208 227 209 213 242 243 226 155 150 224 231 114 137 142 119 27 1 357 357 347 337 338 336 335 337 340 343 348 352
260 256 260 267 260 223 222 230 237 204 197 152 164 132 141 155 197 210 201 199 214 206 211 210 192 186 199 201 226 237 214 141 133 189 236 94 139 148 140 94 24 12 15 17 33 16 357 352 354 354 354 356 359 2
259 254 249 256 257 223 216 223 212 195 175 159 155 162 202 187 222 209 234 163 209 238 167 252 207 192 192 188 228 231 98 142 203 213 198 148 156 149 131 64 72 65 73 53 31 23 7 4 4 3 6 5 8 9
253 249 250 242 247 214 212 209 213 200 183 178 177 213 213 226 238 179 241 239 247 268 301 301 245 173 169 220 217 149 172 211 234 89 109 141 144 139 126 114 103 87 65 47 43 28 13 13 12 12 16 18 20 21
242 255 241 225 215 200 176 189 191 186 184 208 213 230 213 228 234 223 246 255 260 238 261 222 241 190 219 209 218 208 181 222 180 142 135 142 138 136 131 123 107 86 66 51 46 30 22 22 24 24 27 31 29 31
220 241 254 213 197 201 188 192 184 189 213 212 237 225 228 275 251 240 227 256 251 205 182 206 184 171 109 188 246 192 209 155 148 132 141 144 142 140 134 125 109 90 67 55 46 34 29 32 37 40 40 40 41 40
219 230 184 158 167 197 168 185 183 190 224 227 237 232 221 232 240 245 226 297 214 212 173 138 145 187 171 166 227 181 143 120 133 140 141 142 140 138 132 122 114 100 78 60 47 38 37 41 42 40 38 39 38 39
215 193 162 187 195 174 157 176 183 197 220 228 244 242 238 247 250 244 259 268 260 232 351 211 214 176 187 245 265 163 158 149 145 143 143 145 143 141 133 116 107 103 77 60 49 45 42 43 42 38 35 34 33 31
191 186 193 217 188 148 139 152 176 209 204 230 235 228 223 224 226 226 250 245 216 161 192 218 210 143 196 314 317 196 164 156 148 140 148 156 157 154 153 153 136 125 61 54 50 51 47 43 40 34 30 31 30 28
184 189 200 178 180 138 150 158 176 202 209 228 244 215 240 232 224 215 209 222 202 205 207 213 178 189 296 314 154 146 154 159 163 160 160 160 160 153 153 156 153 151 96 64 56 51 46 41 34 28 25 26 26 26
164 179 167 173 130 165 171 185 170 184 208 258 222 210 233 230 215 203 187 197 211 192 194 179 172 240 328 170 145 150 154 155 152 156 159 158 158 160 158 147 135 131 117 87 68 54 43 37 30 23 21 22 22 23
173 173 122 149 128 167 126 178 180 201 218 221 178 197 220 245 211 162 217 207 207 183 191 151 185 240 339 189 162 161 165 160 149 157 160 160 158 163 163 150 127 98 88 71 62 48 33 26 20 18 17 18 20 20
163 130 143 159 155 170 169 187 208 215 216 249 197 227 224 223 170 217 225 198 179 161 189 200 205 228 232 164 159 169 176 169 160 163 172 177 172 170 171 164 145 121 82 52 40 28 20 15 14 13 13 13 13 14
124 152 146 141 185 183 197 172 176 231 199 204 207 220 221 172 186 197 135 76 164 199 228 222 194 203 179 162 148 149 166 174 174 177 177 184 182 176 173 169 156 125 54 42 28 17 8 7 6 6 5 6 7 7
113 174 183 186 177 206 184 191 187 207 193 197 221 205 158 137 165 102 67 9 22 31 232 180 170 164 150 147 148 149 151 158 171 174 178 183 187 159 160 170 157 68 43 37 22 10 3 2 2 1 359 358 358 360
154 175 188 191 184 193 202 203 163 185 184 219 173 155 176 146 99 70 79 22 38 20 152 170 172 162 191 164 161 165 165 173 186 199 185 174 173 159 128 118 147 108 90 40 10 3 1 357 354 353 352 351 350 351
174 175 177 176 194 217 194 188 183 195 204 202 146 114 76 29 62 348 37 49 50 95 141 157 164 168 159 168 170 176 170 160 158 149 151 146 132 159 281 86 101 112 67 357 349 347 347 346 345 345 344 343 343 344
191 165 145 166 149 172 201 269 254 130 331 114 92 87 86 67 18 44 76 104 95 99 135 154 149 154 156 148 138 139 135 122 118 114 101 1 170 171 181 164 147 337 332 333 333 334 336 337 338 338 337 338 338 339
156 164 123 125 84 91 34 332 93 131 107 113 106 109 89 79 66 92 99 93 107 135 145 151 165 156 139 139 134 133 139 143 158 228 199 186 179 188 194 199 253 314 324 324 327 330 333 335 335 334 335 336 337 340
156 153 94 80 84 92 98 98 104 102 90 89 123 115 119 110 79 78 88 93 102 113 126 129 127 127 132 139 147 152 149 136 133 129 124 162 188 191 203 240 293 310 316 320 323 328 331 334 337 339 341 343 344 346
145 138 133 116 116 137 98 59 59 66 63 69 63 89 91 80 68 57 84 117 119 121 122 128 132 132 133 131 135 132 121 116 103 96 107 133 187 243 275 289 302 315 318 319 323 330 335 339 342 345 347 349 350 351
106 104 107 103 115 118 107 98 82 82 57 65 62 69 70 74 82 59 53 91 146 149 136 129 122 118 116 115 112 113 112 95 81 74 26 360 29 33 29 6 339 330 330 331 333 338 343 348 350 352 354 354 353 353
Wind_Speed_850mb
41 44 44 42 41 40 35 28 27 28 24 22 21 20 21 21 21 17 16 16 17 11 27 18 16 22 19 15 6 6 15 3 5 4 5 4 2 4 4 4 6 11 9 7 8 9 11 11 9 9 20 39 47 56
37 35 33 34 35 36 34 31 29 28 24 22 20 20 21 22 21 24 22 20 22 27 30 51 52 49 52 43 18 10 5 7 5 5 3 4 3 5 2 3 3 6 6 3 9 4 1 7 19 14 29 46 52 56
40 38 36 35 35 37 35 34 36 32 28 25 22 18 18 25 26 24 24 21 22 21 33 14 7 4 10 12 43 11 7 10 8 8 5 3 4 3 3 4 6 5 4 4 4 2 4 18 8 29 37 47 56 56
42 41 40 38 35 33 32 30 29 33 31 26 21 17 18 25 25 22 21 23 21 13 8 12 8 32 35 29 27 35 39 6 7 13 5 3 5 3 2 3 5 4 5 3 9 10 18 5 23 43 50 52 56 56
44 43 41 39 37 35 31 28 26 28 30 23 25 19 17 21 21 22 18 22 24 12 8 22 54 6 6 18 35 35 40 31 9 4 5 5 4 4 2 3 9 8 4 6 4 4 9 28 37 42 53 58 57 59
41 40 37 35 33 35 35 31 27 25 31 23 24 19 20 22 23 16 7 17 28 26 9 8 14 13 11 11 30 37 22 24 11 10 7 7 6 4 4 5 4 8 8 6 3 9 20 34 35 40 49 54 54 56
34 36 34 33 31 32 32 26 27 25 31 28 20 24 24 27 26 14 7 5 13 13 5 10 9 10 13 5 19 25 25 13 13 7 7 6 3 7 4 6 3 10 6 6 7 14 18 21 38 44 46 50 50 52
31 32 33 31 30 26 23 20 28 32 31 31 22 23 26 25 18 25 25 20 12 9 7 5 7 10 5 9 8 15 13 16 15 8 5 6 2 6 6 9 8 9 3 3 4 13 23 33 35 39 44 50 54 57
32 33 31 28 25 21 15 20 30 33 32 25 19 31 29 20 11 13 13 10 16 14 6 7 4 4 9 5 11 14 10 6 9 5 6 8 5 8 7 13 15 8 1 7 13 18 22 27 34 40 47 50 53 64
33 31 29 27 23 21 20 21 22 15 23 22 39 20 10 11 14 13 14 12 10 9 10 7 9 8 3 5 5 5 8 5 6 7 11 7 5 3 11 17 14 5 5 10 15 19 25 29 36 44 45 44 46 55
30 28 25 25 23 20 15 16 17 13 39 41 14 11 14 20 17 7 7 7 10 7 11 10 20 14 6 5 3 6 3 4 4 5 5 4 4 6 12 13 9 7 12 11 11 15 18 25 35 42 44 43 44 50
30 28 26 26 24 25 21 18 20 31 26 26 12 24 20 10 7 6 6 7 9 7 10 8 12 20 9 11 6 6 3 4 3 12 4 3 4 15 14 7 6 10 11 10 12 13 17 23 31 33 35 39 44 47
37 33 29 28 26 32 19 21 23 41 27 25 8 9 9 8 8 10 11 7 7 8 10 11 5 8 12 14 9 5 6 3 13 4 3 4 14 14 11 4 5 9 10 10 12 13 19 27 28 31 34 36 40 47
31 28 28 30 24 29 22 17 38 39 14 8 10 9 8 8 10 10 7 3 6 8 11 9 9 10 11 9 4 4 3 5 3 5 3 6 21 18 9 5 7 11 15 13 15 19 24 29 32 30 33 34 37 44
23 27 30 28 26 36 24 12 40 48 11 7 9 8 12 14 5 2 5 12 18 17 18 11 8 11 4 4 5 4 5 5 4 1 5 20 25 17 11 14 17 15 14 16 18 19 27 31 35 33 33 34 36 40
23 26 26 27 25 24 24 31 49 39 11 8 10 6 9 7 10 14 24 27 21 18 7 8 4 3 4 3 5 6 4 5 3 4 18 29 24 21 23 23 19 17 16 17 17 21 27 31 36 36 35 38 39 43
12 20 14 21 32 28 26 49 37 15 12 7 8 19 11 6 12 7 8 12 10 8 5 5 8 3 3 3 3 4 5 1 13 20 29 27 29 31 26 20 16 13 14 16 18 23 28 29 35 41 46 47 47 48
23 16 16 19 27 27 43 32 15 12 10 16 8 11 17 17 15 14 8 8 7 6 7 3 2 6 3 4 4 4 6 10 19 33 32 34 36 30 23 18 13 12 12 15 18 22 28 32 39 44 44 46 47 53
24 19 18 23 25 32 14 14 9 8 16 7 14 19 12 12 17 20 17 13 11 5 3 3 5 5 2 8 5 7 19 24 34 31 36 38 31 25 17 13 11 10 11 14 17 21 27 31 34 38 42 45 47 54
22 18 22 17 42 12 10 8 14 6 8 8 11 9 8 8 10 17 14 18 12 11 6 6 5 6 7 9 7 5 28 40 43 35 33 34 26 18 13 10 8 6 8 12 14 14 17 24 31 35 38 45 49 53
27 26 23 43 23 5 7 10 10 8 6 8 6 9 6 9 12 15 12 14 12 7 7 11 14 14 17 5 4 19 35 38 33 34 39 32 25 18 17 15 10 8 4 8 11 13 17 23 27 30 34 38 41 43
38 36 34 35 6 9 3 11 7 5 6 5 5 8 5 5 8 10 12 16 8 11 11 16 22 14 9 6 19 27 34 31 27 29 34 31 27 26 20 14 11 9 8 8 10 11 14 18 22 25 28 31 34 38
41 34 11 10 4 6 6 10 7 8 6 4 7 4 5 4 4 17 6 10 10 22 23 20 24 10 8 10 19 25 34 32 28 33 30 23 22 23 20 15 12 9 9 10 11 10 12 16 20 23 26 29 32 35
28 11 7 12 7 7 8 7 7 4 5 3 4 3 4 6 13 5 2 3 5 20 21 20 30 28 16 14 17 21 33 33 27 29 26 25 25 25 19 14 11 9 9 11 11 11 12 15 20 24 27 29 32 34
10 7 9 6 7 8 7 7 7 5 6 7 6 4 4 8 4 3 2 2 5 16 13 13 25 27 26 19 16 15 23 30 25 23 25 27 24 23 19 14 9 5 8 11 10 11 13 17 21 25 28 31 32 33
6 8 12 15 8 7 7 4 10 9 5 6 6 4 5 3 3 4 3 10 7 8 3 19 31 26 17 13 15 18 21 22 23 21 21 23 22 9 8 11 8 3 6 9 12 15 17 20 23 27 29 32 35 35
8 8 9 11 6 7 7 6 6 4 8 6 4 4 4 3 4 5 4 19 11 7 12 20 21 14 12 20 20 21 20 19 19 14 9 21 17 13 9 5 4 1 4 7 12 15 18 23 27 30 31 32 34 35
4 14 10 19 11 7 2 4 7 7 4 5 9 3 3 6 4 7 5 13 19 16 21 23 22 11 11 18 19 20 21 18 16 12 21 22 15 4 3 3 5 5 3 10 15 19 24 29 32 33 34 34 35 36
7 14 12 9 5 4 5 1 2 3 2 6 4 4 5 7 12 9 7 12 16 16 16 22 24 13 22 23 23 21 24 25 28 25 13 5 4 10 8 6 4 0 8 14 19 24 28 31 33 34 35 34 34 35
9 22 6 7 2 3 5 3 1 5 9 15 17 21 20 20 22 16 17 18 13 14 18 20 24 30 36 32 39 37 29 21 14 5 4 8 11 10 9 7 3 8 15 19 23 28 31 32 33 32 31 30 31 32
20 12 7 7 6 10 22 26 22 20 14 19 29 30 20 16 30 27 27 27 25 26 29 32 32 31 31 28 22 18 13 7 8 7 6 7 7 7 7 6 10 15 17 21 25 27 29 29 27 26 25 26 27 29
11 7 10 6 6 13 12 10 11 11 11 12 11 10 10 10 10 12 19 25 30 36 39 39 35 27 24 19 17 17 16 18 16 12 8 5 4 6 10 13 15 15 16 19 23 22 23 23 22 22 22 24 26 28
12 18 19 11 8 7 7 9 7 6 9 7 8 10 10 8 9 6 14 14 19 22 23 25 29 29 28 25 21 19 12 6 5 3 2 2 2 4 5 6 8 11 13 16 18 18 18 18 19 20 22 24 26 28
Wind_Direction_850mb
282 277 277 279 284 285 281 281 283 292 292 294 286 282 274 282 275 273 271 253 241 247 281 255 247 233 247 242 249 326 317 155 264 229 242 196 213 27 290 175 180 187 193 194 207 240 262 19 339 323 331 311 312 312
283 284 281 281 283 281 280 280 280 276 285 292 283 278 268 273 269 261 262 255 256 254 272 289 280 264 253 248 276 226 259 313 285 291 294 297 198 190 251 256 205 215 218 199 221 286 116 352 294 303 319 310 315 314
278 279 279 281 280 281 282 283 277 266 270 284 279 271 250 262 263 261 262 261 275 282 302 285 271 281 344 274 227 244 228 232 228 357 300 296 272 184 233 239 287 148 157 224 270 149 275 308 183 326 326 320 318 316
274 276 278 280 277 277 283 291 292 258 259 273 272 255 249 261 251 258 254 259 265 287 284 280 273 298 286 259 228 224 225 217 315 348 291 296 271 212 276 320 277 8 187 207 261 286 325 265 304 325 323 323 322 319
275 276 277 276 273 271 276 290 298 262 250 256 270 246 240 250 247 246 254 257 260 258 281 284 305 357 344 260 220 211 217 236 293 296 245 241 255 237 205 250 250 200 215 232 280 2 283 297 313 321 323 323 323 324
277 276 276 272 272 272 273 286 289 273 244 244 252 250 235 233 235 235 255 248 243 250 292 295 303 302 346 293 211 214 216 233 212 212 237 241 235 243 260 259 123 171 176 202 318 292 286 297 309 321 323 324 324 325
282 276 273 275 271 274 276 280 293 282 244 238 238 248 230 230 227 202 216 209 169 201 243 285 282 281 314 162 192 211 218 204 199 223 236 283 228 220 234 246 254 190 203 272 302 315 302 316 317 325 326 326 327 327
289 286 279 274 271 266 267 284 286 284 246 225 232 241 221 216 212 230 244 252 275 236 215 268 276 293 274 197 190 188 183 191 214 203 201 237 194 228 257 225 182 188 267 315 320 296 294 310 319 325 330 334 334 337
288 285 283 276 262 253 279 294 289 276 217 213 213 194 182 193 204 241 261 247 250 209 233 219 255 284 324 293 196 184 194 180 203 215 200 194 185 224 252 175 163 168 251 316 321 308 313 321 324 330 334 339 338 338
285 279 278 268 255 245 283 286 292 220 183 228 187 163 184 183 189 149 152 181 198 226 237 246 232 259 303 338 267 211 168 198 200 199 165 215 235 105 75 121 135 117 3 342 328 322 331 332 332 333 335 337 336 339
277 271 272 267 253 237 263 271 216 245 186 171 161 143 152 147 154 172 198 209 190 236 220 239 228 235 245 238 286 282 219 203 210 144 221 199 211 123 131 121 100 24 348 348 332 316 324 326 327 331 334 340 342 345
265 269 264 269 251 225 238 241 239 205 186 179 168 128 140 166 182 212 199 199 208 244 195 221 218 208 227 209 213 242 243 226 155 150 224 231 114 137 142 119 27 1 357 357 347 337 338 336 335 337 340 343 348 352
260 256 260 267 260 223 222 230 237 204 197 152 164 132 141 155 197 210 201 199 214 206 211 210 192 186 199 201 226 237 214 141 133 189 236 94 139 148 140 94 24 12 15 17 33 16 357 352 354 354 354 356 359 2
259 254 249 256 257 223 216 223 212 195 175 159 155 162 202 187 222 209 234 163 209 238 167 252 207 192 192 188 228 231 98 142 203 213 198 148 156 149 131 64 72 65 73 53 31 23 7 4 4 3 6 5 8 9
253 249 250 242 247 214 212 209 213 200 183 178 177 213 213 226 238 179 241 239 247 268 301 301 245 173 169 220 217 149 172 211 234 89 109 141 144 139 126 114 103 87 65 47 43 28 13 13 12 12 16 18 20 21
242 255 241 225 215 200 176 189 191 186 184 208 213 230 213 228 234 223 246 255 260 238 261 222 241 190 219 209 218 208 181 222 180 142 135 142 138 136 131 123 107 86 66 51 46 30 22 22 24 24 27 31 29 31
220 241 254 213 197 201 188 192 184 189 213 212 237 225 228 275 251 240 227 256 251 205 182 206 184 171 109 188 246 192 209 155 148 132 141 144 142 140 134 125 109 90 67 55 46 34 29 32 37 40 40 40 41 40
219 230 184 158 167 197 168 185 183 190 224 227 237 232 221 232 240 245 226 297 214 212 173 138 145 187 171 166 227 181 143 120 133 140 141 142 140 138 132 122 114 100 78 60 47 38 37 41 42 40 38 39 38 39
215 193 162 187 195 174 157 176 183 197 220 228 244 242 238 247 250 244 259 268 260 232 351 211 214 176 187 245 265 163 158 149 145 143 143 145 143 141 133 116 107 103 77 60 49 45 42 43 42 38 35 34 33 31
191 186 193 217 188 148 139 152 176 209 204 230 235 228 223 224 226 226 250 245 216 161 192 218 210 143 196 314 317 196 164 156 148 140 148 156 157 154 153 153 136 125 61 54 50 51 47 43 40 34 30 31 30 28
184 189 200 178 180 138 150 158 176 202 209 228 244 215 240 232 224 215 209 222 202 205 207 213 178 189 296 314 154 146 154 159 163 160 160 160 160 153 153 156 153 151 96 64 56 51 46 41 34 28 25 26 26 26
164 179 167 173 130 165 171 185 170 184 208 258 222 210 233 230 215 203 187 197 211 192 194 179 172 240 328 170 145 150 154 155 152 156 159 158 158 160 158 147 135 131 117 87 68 54 43 37 30 23 21 22 22 23
173 173 122 149 128 167 126 178 180 201 218 221 178 197 220 245 211 162 217 207 207 183 191 151 185 240 339 189 162 161 165 160 149 157 160 160 158 163 163 150 127 98 88 71 62 48 33 26 20 18 17 18 20 20
163 130 143 159 155 170 169 187 208 215 216 249 197 227 224 223 170 217 225 198 179 161 189 200 205 228 232 164 159 169 176 169 160 163 172 177 172 170 171 164 145 121 82 52 40 28 20 15 14 13 13 13 13 14
124 152 146 141 185 183 197 172 176 231 199 204 207 220 221 172 186 197 135 76 164 199 228 222 194 203 179 162 148 149 166 174 174 177 177 184 182 176 173 169 156 125 54 42 28 17 8 7 6 6 5 6 7 7
113 174 183 186 177 206 184 191 187 207 193 197 221 205 158 137 165 102 67 9 22 31 232 180 170 164 150 147 148 149 151 158 171 174 178 183 187 159 160 170 157 68 43 37 22 10 3 2 2 1 359 358 358 360
154 175 188 191 184 193 202 203 163 185 184 219 173 155 176 146 99 70 79 22 38 20 152 170 172 162 191 164 161 165 165 173 186 199 185 174 173 159 128 118 147 108 90 40 10 3 1 357 354 353 352 351 350 351
174 175 177 176 194 217 194 188 183 195 204 202 146 114 76 29 62 348 37 49 50 95 141 157 164 168 159 168 170 176 170 160 158 149 151 146 132 159 281 86 101 112 67 357 349 347 347 346 345 345 344 343 343 344
191 165 145 166 149 172 201 269 254 130 331 114 92 87 86 67 18 44 76 104 95 99 135 154 149 154 156 148 138 139 135 122 118 114 101 1 170 171 181 164 147 337 332 333 333 334 336 337 338 338 337 338 338 339
156 164 123 125 84 91 34 332 93 131 107 113 106 109 89 79 66 92 99 93 107 135 145 151 165 156 139 139 134 133 139 143 158 228 199 186 179 188 194 199 253 314 324 324 327 330 333 335 335 334 335 336 337 340
156 153 94 80 84 92 98 98 104 102 90 89 123 115 119 110 79 78 88 93 102 113 126 129 127 127 132 139 147 152 149 136 133 129 124 162 188 191 203 240 293 310 316 320 323 328 331 334 337 339 341 343 344 346
145 138 133 116 116 137 98 59 59 66 63 69 63 89 91 80 68 57 84 117 119 121 122 128 132 132 133 131 135 132 121 116 103 96 107 133 187 243 275 289 302 315 318 319 323 330 335 339 342 345 347 349 350 351
106 104 107 103 115 118 107 98 82 82 57 65 62 69 70 74 82 59 53 91 146 149 136 129 122 118 116 115 112 113 112 95 81 74 26 360 29 33 29 6 339 330 330 331 333 338 343 348 350 352 354 354 353 353